,,PA_Meas_PMT16A,,PR_Meas_QMR101_102,,RH_Meas_QMH101,,SR_Meas_QMS101,,TA_Meas_QMH101,,GenWind,,GenWind,
time,status,PA,status,PR,status,RH,status,SR,status,TA,status,DirAvg,status,SpdAvg,
2011-10-16, 01:21:04,VALID,916.257,VALID,0,VALID,97.4196,VALID,0,VALID,19.9158,VALID,88,VALID,0.570703,
2011-10-16, 01:22:04,VALID,916.284,VALID,0,VALID,97.4425,VALID,0,VALID,19.9368,VALID,88,VALID,0.312891,
2011-10-16, 01:23:04,VALID,916.249,VALID,0,VALID,97.4425,VALID,0,VALID,19.9368,VALID,88,VALID,0.375,
2011-10-16, 01:24:04,VALID,916.224,VALID,0,VALID,97.4654,VALID,0,VALID,19.9563,VALID,88,VALID,0.389062,
2011-10-16, 01:25:04,VALID,916.226,VALID,0,VALID,97.4577,VALID,0,VALID,19.9563,VALID,88,VALID,0.329688,
2011-10-16, 01:26:04,VALID,916.255,VALID,0,VALID,97.4425,VALID,0,VALID,19.9563,VALID,88,VALID,0.346094,
2011-10-16, 01:27:04,VALID,916.258,VALID,0,VALID,97.4577,VALID,0,VALID,19.9758,VALID,88,VALID,0.435937,
2011-10-16, 01:28:04,VALID,916.198,VALID,0,VALID,97.4577,VALID,0,VALID,19.9758,VALID,143,VALID,0.756641,
2011-10-16, 01:29:04,VALID,916.178,VALID,0,VALID,97.4425,VALID,0,VALID,19.9758,VALID,143,VALID,0.435547,
2011-10-16, 01:30:04,VALID,916.162,VALID,0,VALID,97.4501,VALID,0,VALID,19.9953,VALID,143,VALID,0.0488281,
2011-10-16, 01:31:04,VALID,916.115,VALID,0,VALID,97.4501,VALID,0,VALID,19.9758,VALID,143,VALID,0.397656,
2011-10-16, 01:32:04,VALID,916.135,VALID,0,VALID,97.4501,VALID,0,VALID,19.9563,VALID,143,VALID,0.490625,
2011-10-16, 01:33:04,VALID,916.11,VALID,0,VALID,97.4654,VALID,0,VALID,19.9368,VALID,143,VALID,0.537109,
2011-10-16, 01:34:04,VALID,916.085,VALID,0,VALID,97.4501,VALID,0,VALID,19.9158,VALID,143,VALID,0.474609,
2011-10-16, 01:35:04,VALID,916.087,VALID,0,VALID,97.4806,VALID,0,VALID,19.9368,VALID,143,VALID,0.549219,
2011-10-16, 01:36:04,VALID,916.065,VALID,0,VALID,97.4577,VALID,0,VALID,19.9563,VALID,143,VALID,0.208984,
2011-10-16, 01:37:04,VALID,916.034,VALID,0,VALID,97.4577,VALID,0,VALID,19.9758,VALID,143,VALID,0.160156,
2011-10-16, 01:38:04,VALID,916.047,VALID,0,VALID,97.4577,VALID,0,VALID,19.9938,VALID,143,VALID,0,
2011-10-16, 01:39:04,VALID,916.058,VALID,0,VALID,97.4425,VALID,0,VALID,20.0343,VALID,143,VALID,0.485547,
2011-10-16, 01:40:04,VALID,916.023,VALID,0,VALID,97.4577,VALID,0,VALID,20.0133,VALID,143,VALID,0.436719,
2011-10-16, 01:41:04,VALID,916.032,VALID,0,VALID,97.4425,VALID,0,VALID,20.0133,VALID,143,VALID,0.239844,
2011-10-16, 01:42:04,VALID,915.999,VALID,0,VALID,97.4349,VALID,0,VALID,20.0133,VALID,143,VALID,0.545313,
2011-10-16, 01:43:04,VALID,916.024,VALID,0,VALID,97.4577,VALID,0,VALID,19.9938,VALID,143,VALID,0.598047,
2011-10-16, 01:44:04,VALID,916.03,VALID,0,VALID,97.4425,VALID,0,VALID,19.9743,VALID,143,VALID,0.832812,
2011-10-16, 01:45:04,VALID,916.009,VALID,0,VALID,97.4349,VALID,0,VALID,19.9758,VALID,135,VALID,0.807422,
2011-10-16, 01:46:04,VALID,916.049,VALID,0,VALID,97.4273,VALID,0,VALID,19.9953,VALID,124,VALID,0.552734,
2011-10-16, 01:47:04,VALID,915.999,VALID,0,VALID,97.4349,VALID,0,VALID,19.9968,VALID,124,VALID,0.351953,
2011-10-16, 01:48:04,VALID,915.979,VALID,0,VALID,97.4196,VALID,0,VALID,19.9758,VALID,124,VALID,0.380859,
2011-10-16, 01:49:04,VALID,915.947,VALID,0,VALID,97.4273,VALID,0,VALID,19.9758,VALID,124,VALID,0.452734,
2011-10-16, 01:50:04,VALID,915.917,VALID,0,VALID,97.412,VALID,0,VALID,19.9758,VALID,124,VALID,0.964063,
2011-10-16, 01:51:04,VALID,915.856,VALID,0,VALID,97.4196,VALID,0,VALID,19.9758,VALID,124,VALID,0.263672,
2011-10-16, 01:52:04,VALID,915.836,VALID,0,VALID,97.412,VALID,0,VALID,19.9953,VALID,166,VALID,0.251953,
2011-10-16, 01:53:04,VALID,915.825,VALID,0,VALID,97.4273,VALID,0,VALID,19.9938,VALID,166,VALID,0.215234,
2011-10-16, 01:54:04,VALID,915.823,VALID,0,VALID,97.4349,VALID,0,VALID,20.0148,VALID,166,VALID,0.117578,
2011-10-16, 01:55:04,VALID,915.835,VALID,0,VALID,97.4196,VALID,0,VALID,19.9743,VALID,166,VALID,0.427734,
2011-10-16, 01:56:04,VALID,915.829,VALID,0,VALID,97.4196,VALID,0,VALID,19.9953,VALID,166,VALID,0.662109,
2011-10-16, 01:57:04,VALID,915.832,VALID,0,VALID,97.4196,VALID,0,VALID,19.9758,VALID,166,VALID,0.375,
2011-10-16, 01:58:04,VALID,915.848,VALID,0,VALID,97.4196,VALID,0,VALID,19.9743,VALID,166,VALID,0.0792969,
2011-10-16, 01:59:04,VALID,915.848,VALID,0,VALID,97.412,VALID,0,VALID,20.0148,VALID,166,VALID,0,
2011-10-16, 02:00:04,VALID,915.865,VALID,0,VALID,97.4196,VALID,0,VALID,19.9938,VALID,166,VALID,0,
2011-10-16, 02:01:04,VALID,915.855,VALID,0,VALID,97.3968,VALID,0,VALID,19.9938,VALID,166,VALID,0.258984,
2011-10-16, 02:02:04,VALID,915.884,VALID,0,VALID,97.4273,VALID,0,VALID,19.9743,VALID,166,VALID,0.5375,
2011-10-16, 02:03:04,VALID,915.856,VALID,0,VALID,97.412,VALID,0,VALID,20.0148,VALID,166,VALID,0.245703,
2011-10-16, 02:04:04,VALID,915.837,VALID,0,VALID,97.3968,VALID,0,VALID,20.0343,VALID,166,VALID,0.426562,
2011-10-16, 02:05:04,VALID,915.841,VALID,0,VALID,97.4044,VALID,0,VALID,20.0133,VALID,166,VALID,0.201953,
2011-10-16, 02:06:04,VALID,915.819,VALID,0,VALID,97.4044,VALID,0,VALID,20.0343,VALID,166,VALID,0.157813,
2011-10-16, 02:07:04,VALID,915.809,VALID,0,VALID,97.3968,VALID,0,VALID,20.0133,VALID,166,VALID,0.253906,
2011-10-16, 02:08:04,VALID,915.803,VALID,0,VALID,97.3968,VALID,0,VALID,20.0343,VALID,166,VALID,0.166797,
2011-10-16, 02:09:04,VALID,915.847,VALID,0,VALID,97.3663,VALID,0,VALID,20.0133,VALID,166,VALID,0.053125,
2011-10-16, 02:10:04,VALID,915.823,VALID,0,VALID,97.3968,VALID,0,VALID,19.9938,VALID,166,VALID,0.344141,
2011-10-16, 02:11:04,VALID,915.794,VALID,0,VALID,97.3968,VALID,0,VALID,19.9743,VALID,166,VALID,0.321484,
2011-10-16, 02:12:04,VALID,915.784,VALID,0,VALID,97.3815,VALID,0,VALID,19.9743,VALID,166,VALID,0,
2011-10-16, 02:13:04,VALID,915.74,VALID,0,VALID,97.3891,VALID,0,VALID,19.9548,VALID,166,VALID,0,
2011-10-16, 02:14:04,VALID,915.759,VALID,0,VALID,97.4044,VALID,0,VALID,19.9548,VALID,166,VALID,0,
2011-10-16, 02:15:04,VALID,915.784,VALID,0,VALID,97.3891,VALID,0,VALID,19.9563,VALID,166,VALID,0.221484,
2011-10-16, 02:16:04,VALID,915.752,VALID,0,VALID,97.3739,VALID,0,VALID,19.9353,VALID,166,VALID,0,
2011-10-16, 02:17:04,VALID,915.757,VALID,0,VALID,97.3815,VALID,0,VALID,19.9368,VALID,166,VALID,0.535156,
2011-10-16, 02:18:04,VALID,915.727,VALID,0,VALID,97.3663,VALID,0,VALID,19.8963,VALID,166,VALID,0.141406,
2011-10-16, 02:19:04,VALID,915.702,VALID,0,VALID,97.3815,VALID,0,VALID,19.8963,VALID,166,VALID,0.327344,
2011-10-16, 02:20:04,VALID,915.727,VALID,0,VALID,97.3739,VALID,0,VALID,19.8978,VALID,166,VALID,0.375,
2011-10-16, 02:21:04,VALID,915.693,VALID,0,VALID,97.3663,VALID,0,VALID,19.8573,VALID,166,VALID,0.230859,
2011-10-16, 02:22:04,VALID,915.687,VALID,0,VALID,97.3586,VALID,0,VALID,19.8573,VALID,166,VALID,0.269141,
2011-10-16, 02:23:04,VALID,915.692,VALID,0,VALID,97.3663,VALID,0,VALID,19.8573,VALID,166,VALID,0.476563,
2011-10-16, 02:24:04,VALID,915.671,VALID,0,VALID,97.3586,VALID,0,VALID,19.8783,VALID,166,VALID,0.596875,
2011-10-16, 02:25:04,VALID,915.659,VALID,0,VALID,97.3434,VALID,0,VALID,19.8378,VALID,166,VALID,0.569141,
2011-10-16, 02:26:04,VALID,915.635,VALID,0,VALID,97.3358,VALID,0,VALID,19.8588,VALID,165,VALID,0.734766,
2011-10-16, 02:27:04,VALID,915.605,VALID,0,VALID,97.3129,VALID,0,VALID,19.8393,VALID,164,VALID,0.310156,
2011-10-16, 02:28:04,VALID,915.613,VALID,0,VALID,97.2977,VALID,0,VALID,19.8408,VALID,164,VALID,0.632031,
2011-10-16, 02:29:04,VALID,915.588,VALID,0,VALID,97.29,VALID,0,VALID,19.8213,VALID,164,VALID,0.528125,
2011-10-16, 02:30:04,VALID,915.538,VALID,0,VALID,97.2824,VALID,0,VALID,19.7988,VALID,153,VALID,0.567969,
2011-10-16, 02:31:04,VALID,915.523,VALID,0,VALID,97.2672,VALID,0,VALID,19.8183,VALID,151,VALID,0.200391,
2011-10-16, 02:32:04,VALID,915.543,VALID,0,VALID,97.2443,VALID,0,VALID,19.8003,VALID,134,VALID,0.571484,
2011-10-16, 02:33:04,VALID,915.496,VALID,0,VALID,97.2062,VALID,0,VALID,19.7598,VALID,86,VALID,0.208203,
2011-10-16, 02:34:04,VALID,915.5,VALID,0,VALID,97.1986,VALID,0,VALID,19.8393,VALID,118,VALID,0.937891,
2011-10-16, 02:35:04,VALID,915.474,VALID,0,VALID,97.1909,VALID,0,VALID,19.9158,VALID,111,VALID,0.932813,
2011-10-16, 02:36:04,VALID,915.459,VALID,0,VALID,97.1681,VALID,0,VALID,20.0148,VALID,111,VALID,0.6375,
2011-10-16, 02:37:04,VALID,915.417,VALID,0,VALID,97.0842,VALID,0,VALID,19.9743,VALID,111,VALID,0.673828,
2011-10-16, 02:38:04,VALID,915.419,VALID,0,VALID,96.9546,VALID,0,VALID,19.9353,VALID,111,VALID,0.767187,
2011-10-16, 02:39:04,VALID,915.376,VALID,0,VALID,96.7564,VALID,0,VALID,19.9368,VALID,111,VALID,0.498828,
2011-10-16, 02:40:04,VALID,915.35,VALID,0,VALID,96.6725,VALID,0,VALID,19.8963,VALID,111,VALID,0.446875,
2011-10-16, 02:41:04,VALID,915.374,VALID,0,VALID,96.6649,VALID,0,VALID,19.8768,VALID,111,VALID,0.328906,
2011-10-16, 02:42:04,VALID,915.378,VALID,0,VALID,96.6192,VALID,0,VALID,19.8378,VALID,111,VALID,0.468359,
2011-10-16, 02:43:04,VALID,915.358,VALID,0,VALID,96.5887,VALID,0,VALID,19.7988,VALID,111,VALID,0.528516,
2011-10-16, 02:44:04,VALID,915.374,VALID,0,VALID,96.5963,VALID,0,VALID,19.7793,VALID,111,VALID,0.457422,
2011-10-16, 02:45:04,VALID,915.379,VALID,0,VALID,96.6039,VALID,0,VALID,19.7598,VALID,111,VALID,0,
2011-10-16, 02:46:04,VALID,915.386,VALID,0,VALID,96.6039,VALID,0,VALID,19.7613,VALID,111,VALID,0,
2011-10-16, 02:47:04,VALID,915.365,VALID,0,VALID,96.5887,VALID,0,VALID,19.7403,VALID,111,VALID,0,
2011-10-16, 02:48:04,VALID,915.342,VALID,0,VALID,96.5887,VALID,0,VALID,19.7613,VALID,111,VALID,0.197656,
2011-10-16, 02:49:04,VALID,915.367,VALID,0,VALID,96.5506,VALID,0,VALID,19.7208,VALID,111,VALID,0.00351562,
2011-10-16, 02:50:04,VALID,915.372,VALID,0,VALID,96.5353,VALID,0,VALID,19.7208,VALID,111,VALID,0,
2011-10-16, 02:51:04,VALID,915.38,VALID,0,VALID,96.5124,VALID,0,VALID,19.7418,VALID,111,VALID,0,
2011-10-16, 02:52:04,VALID,915.346,VALID,0,VALID,96.4286,VALID,0,VALID,19.7208,VALID,111,VALID,0,
2011-10-16, 02:53:04,VALID,915.401,VALID,0,VALID,96.3905,VALID,0,VALID,19.7208,VALID,111,VALID,0,
2011-10-16, 02:54:04,VALID,915.392,VALID,0,VALID,96.4667,VALID,0,VALID,19.7613,VALID,111,VALID,0.353125,
2011-10-16, 02:55:04,VALID,915.416,VALID,0,VALID,96.5201,VALID,0,VALID,19.7793,VALID,111,VALID,0.508594,
2011-10-16, 02:56:04,VALID,915.386,VALID,0,VALID,96.5048,VALID,0,VALID,19.7793,VALID,111,VALID,0.328906,
2011-10-16, 02:57:04,VALID,915.423,VALID,0,VALID,96.5429,VALID,0,VALID,19.7583,VALID,111,VALID,0,
2011-10-16, 02:58:04,VALID,915.436,VALID,0,VALID,96.5811,VALID,0,VALID,19.7793,VALID,111,VALID,0.04375,
2011-10-16, 02:59:04,VALID,915.458,VALID,0,VALID,96.5429,VALID,0,VALID,19.7793,VALID,111,VALID,0.189063,
2011-10-16, 03:00:04,VALID,915.45,VALID,0,VALID,96.5277,VALID,0,VALID,19.7403,VALID,111,VALID,0,
2011-10-16, 03:01:04,VALID,915.414,VALID,0,VALID,96.5734,VALID,0,VALID,19.7613,VALID,111,VALID,0.315234,
2011-10-16, 03:02:04,VALID,915.412,VALID,0,VALID,96.5734,VALID,0,VALID,19.7403,VALID,111,VALID,0.744531,
2011-10-16, 03:03:04,VALID,915.378,VALID,0,VALID,96.5963,VALID,0,VALID,19.7418,VALID,111,VALID,0.396875,
2011-10-16, 03:04:04,VALID,915.382,VALID,0,VALID,96.6497,VALID,0,VALID,19.7418,VALID,111,VALID,0.0582031,
2011-10-16, 03:05:04,VALID,915.372,VALID,0,VALID,96.6649,VALID,0,VALID,19.7403,VALID,111,VALID,0.575,
2011-10-16, 03:06:04,VALID,915.381,VALID,0,VALID,96.7183,VALID,0,VALID,19.7598,VALID,111,VALID,0.182422,
2011-10-16, 03:07:04,VALID,915.35,VALID,0,VALID,96.4896,VALID,0.107441,VALID,19.6818,VALID,111,VALID,0.375781,
2011-10-16, 03:08:04,VALID,915.346,VALID,0,VALID,96.4515,VALID,0,VALID,19.6233,VALID,111,VALID,0,
2011-10-16, 03:09:04,VALID,915.317,VALID,0,VALID,96.5429,VALID,0.107441,VALID,19.6233,VALID,111,VALID,0,
2011-10-16, 03:10:04,VALID,915.317,VALID,0,VALID,96.5963,VALID,0,VALID,19.6428,VALID,111,VALID,0,
2011-10-16, 03:11:04,VALID,915.322,VALID,0,VALID,96.6115,VALID,0.107441,VALID,19.6428,VALID,111,VALID,0,
2011-10-16, 03:12:04,VALID,915.344,VALID,0,VALID,96.5201,VALID,0,VALID,19.5843,VALID,111,VALID,0.395312,
2011-10-16, 03:13:04,VALID,915.335,VALID,0,VALID,96.6115,VALID,0,VALID,19.6038,VALID,111,VALID,0.300391,
2011-10-16, 03:14:04,VALID,915.339,VALID,0,VALID,96.4286,VALID,0,VALID,19.5258,VALID,111,VALID,0.487891,
2011-10-16, 03:15:04,VALID,915.377,VALID,0,VALID,96.4896,VALID,0.107441,VALID,19.5063,VALID,111,VALID,0.392578,
2011-10-16, 03:16:04,VALID,915.396,VALID,0,VALID,96.4286,VALID,0,VALID,19.4478,VALID,111,VALID,0.845312,
2011-10-16, 03:17:04,VALID,915.375,VALID,0,VALID,96.4819,VALID,0,VALID,19.4478,VALID,111,VALID,0.792188,
2011-10-16, 03:18:04,VALID,915.375,VALID,0,VALID,96.5124,VALID,0,VALID,19.4298,VALID,111,VALID,0.6125,
2011-10-16, 03:19:04,VALID,915.379,VALID,0,VALID,96.5658,VALID,0,VALID,19.4283,VALID,111,VALID,0.466406,
2011-10-16, 03:20:04,VALID,915.376,VALID,0,VALID,96.4819,VALID,0,VALID,19.3503,VALID,111,VALID,0.555859,
2011-10-16, 03:21:04,VALID,915.362,VALID,0,VALID,96.5506,VALID,0,VALID,19.3698,VALID,111,VALID,0.439844,
2011-10-16, 03:22:04,VALID,915.371,VALID,0,VALID,96.6497,VALID,0,VALID,19.4088,VALID,147,VALID,0.798828,
2011-10-16, 03:23:04,VALID,915.374,VALID,0,VALID,96.6192,VALID,0,VALID,19.4088,VALID,145,VALID,0.684766,
2011-10-16, 03:24:04,VALID,915.349,VALID,0,VALID,96.6344,VALID,0,VALID,19.4088,VALID,153,VALID,0.866797,
2011-10-16, 03:25:04,VALID,915.322,VALID,0,VALID,96.5963,VALID,0,VALID,19.4298,VALID,144,VALID,0.504687,
2011-10-16, 03:26:04,VALID,915.286,VALID,0,VALID,96.6344,VALID,0,VALID,19.3893,VALID,149,VALID,0.937891,
2011-10-16, 03:27:04,VALID,915.271,VALID,0,VALID,96.6725,VALID,0,VALID,19.3908,VALID,153,VALID,0.397266,
2011-10-16, 03:28:04,VALID,915.278,VALID,0,VALID,96.7183,VALID,0,VALID,19.3698,VALID,153,VALID,0.217969,
2011-10-16, 03:29:04,VALID,915.292,VALID,0,VALID,96.7411,VALID,0,VALID,19.4103,VALID,118,VALID,0.566406,
2011-10-16, 03:30:04,VALID,915.298,VALID,0,VALID,96.8098,VALID,0,VALID,19.4688,VALID,138,VALID,0.758984,
2011-10-16, 03:31:04,VALID,915.321,VALID,0,VALID,96.8479,VALID,0,VALID,19.5063,VALID,131,VALID,0.951172,
2011-10-16, 03:32:04,VALID,915.363,VALID,0,VALID,96.8784,VALID,0,VALID,19.6248,VALID,150,VALID,0.780469,
2011-10-16, 03:33:04,VALID,915.385,VALID,0,VALID,96.703,VALID,0,VALID,19.6248,VALID,109,VALID,0.765625,
2011-10-16, 03:34:04,VALID,915.401,VALID,0,VALID,96.5658,VALID,0,VALID,19.6623,VALID,109,VALID,0.835547,
2011-10-16, 03:35:04,VALID,915.403,VALID,0,VALID,96.2304,VALID,0,VALID,19.6623,VALID,109,VALID,0.455469,
2011-10-16, 03:36:04,VALID,915.444,VALID,0,VALID,96.0474,VALID,0,VALID,19.6638,VALID,109,VALID,0.642969,
2011-10-16, 03:37:04,VALID,915.44,VALID,0,VALID,96.1313,VALID,0,VALID,19.7223,VALID,109,VALID,0.413281,
2011-10-16, 03:38:04,VALID,915.479,VALID,0,VALID,96.0703,VALID,0,VALID,19.7208,VALID,109,VALID,0.479688,
2011-10-16, 03:39:04,VALID,915.483,VALID,0,VALID,96.0169,VALID,0,VALID,19.7418,VALID,109,VALID,0.551172,
2011-10-16, 03:40:04,VALID,915.456,VALID,0,VALID,96.0169,VALID,0,VALID,19.7403,VALID,109,VALID,0.30625,
2011-10-16, 03:41:04,VALID,915.499,VALID,0,VALID,95.9407,VALID,0,VALID,19.7808,VALID,109,VALID,0.0664063,
2011-10-16, 03:42:04,VALID,915.478,VALID,0,VALID,95.8721,VALID,0,VALID,19.8183,VALID,109,VALID,0,
2011-10-16, 03:43:04,VALID,915.489,VALID,0,VALID,95.773,VALID,0,VALID,19.7988,VALID,109,VALID,0,
2011-10-16, 03:44:04,VALID,915.481,VALID,0,VALID,95.6281,VALID,0,VALID,19.7793,VALID,109,VALID,0.427734,
2011-10-16, 03:45:04,VALID,915.466,VALID,0,VALID,95.4985,VALID,0,VALID,19.7988,VALID,109,VALID,0.367578,
2011-10-16, 03:46:04,VALID,915.47,VALID,0,VALID,95.5595,VALID,0,VALID,19.8963,VALID,109,VALID,0.398438,
2011-10-16, 03:47:04,VALID,915.457,VALID,0,VALID,95.3918,VALID,0,VALID,19.9548,VALID,109,VALID,0.184375,
2011-10-16, 03:48:04,VALID,915.498,VALID,0,VALID,95.1174,VALID,0,VALID,19.9953,VALID,109,VALID,0.285547,
2011-10-16, 03:49:04,VALID,915.487,VALID,0,VALID,94.7743,VALID,0,VALID,19.9743,VALID,109,VALID,0.389062,
2011-10-16, 03:50:04,VALID,915.483,VALID,0,VALID,94.7057,VALID,0,VALID,20.0148,VALID,109,VALID,0,
2011-10-16, 03:51:04,VALID,915.506,VALID,0,VALID,94.6676,VALID,0,VALID,19.9938,VALID,109,VALID,0.378125,
2011-10-16, 03:52:04,VALID,915.489,VALID,0,VALID,94.5151,VALID,0,VALID,19.9563,VALID,109,VALID,0.184766,
2011-10-16, 03:53:04,VALID,915.513,VALID,0,VALID,94.5913,VALID,0,VALID,19.9368,VALID,109,VALID,0.254687,
2011-10-16, 03:54:04,VALID,915.535,VALID,0,VALID,94.6828,VALID,0,VALID,19.9173,VALID,114,VALID,0.683203,
2011-10-16, 03:55:04,VALID,915.543,VALID,0,VALID,94.7209,VALID,0.107441,VALID,19.9158,VALID,215,VALID,0.693359,
2011-10-16, 03:56:04,VALID,915.556,VALID,0,VALID,94.66,VALID,0,VALID,19.9173,VALID,201,VALID,0.845312,
2011-10-16, 03:57:04,VALID,915.551,VALID,0,VALID,94.6142,VALID,0,VALID,19.8768,VALID,197,VALID,0.605469,
2011-10-16, 03:58:04,VALID,915.528,VALID,0,VALID,94.6142,VALID,0,VALID,19.8378,VALID,197,VALID,0.552344,
2011-10-16, 03:59:04,VALID,915.566,VALID,0,VALID,94.5304,VALID,0.107441,VALID,19.8198,VALID,197,VALID,0.402734,
2011-10-16, 04:00:04,VALID,915.56,VALID,0,VALID,94.2864,VALID,0,VALID,19.7418,VALID,29,VALID,1.27969,
2011-10-16, 04:01:04,VALID,915.573,VALID,0,VALID,94.4465,VALID,0,VALID,19.6833,VALID,29,VALID,1.03008,
2011-10-16, 04:02:04,VALID,915.604,VALID,0,VALID,94.7286,VALID,0,VALID,19.6038,VALID,29,VALID,1.22422,
2011-10-16, 04:03:04,VALID,915.62,VALID,0,VALID,94.9801,VALID,0,VALID,19.5663,VALID,29,VALID,1.09141,
2011-10-16, 04:04:04,VALID,915.593,VALID,0,VALID,95.1707,VALID,0,VALID,19.5063,VALID,29,VALID,1.62148,
2011-10-16, 04:05:04,VALID,915.587,VALID,0,VALID,95.3156,VALID,0,VALID,19.4673,VALID,29,VALID,1.00781,
2011-10-16, 04:06:04,VALID,915.599,VALID,0,VALID,95.4375,VALID,0,VALID,19.4493,VALID,29,VALID,0.902734,
2011-10-16, 04:07:04,VALID,915.617,VALID,0,VALID,95.5367,VALID,0,VALID,19.4298,VALID,29,VALID,0.724609,
2011-10-16, 04:08:04,VALID,915.621,VALID,0,VALID,95.6281,VALID,0,VALID,19.3908,VALID,29,VALID,0.989062,
2011-10-16, 04:09:04,VALID,915.644,VALID,0,VALID,95.7806,VALID,0,VALID,19.3908,VALID,29,VALID,0.75625,
2011-10-16, 04:10:04,VALID,915.628,VALID,0,VALID,95.8187,VALID,0,VALID,19.3518,VALID,29,VALID,0.742188,
2011-10-16, 04:11:04,VALID,915.65,VALID,0,VALID,95.9483,VALID,0,VALID,19.3713,VALID,29,VALID,0.559766,
2011-10-16, 04:12:04,VALID,915.653,VALID,0,VALID,96.0245,VALID,0,VALID,19.3518,VALID,29,VALID,0.602344,
2011-10-16, 04:13:04,VALID,915.644,VALID,0,VALID,96.0322,VALID,0,VALID,19.3323,VALID,163,VALID,0.741406,
2011-10-16, 04:14:04,VALID,915.642,VALID,0,VALID,96.055,VALID,0,VALID,19.2933,VALID,163,VALID,0.598828,
2011-10-16, 04:15:04,VALID,915.634,VALID,0,VALID,96.1541,VALID,0,VALID,19.3128,VALID,152,VALID,0.764844,
2011-10-16, 04:16:04,VALID,915.644,VALID,0,VALID,96.2914,VALID,0,VALID,19.3518,VALID,139,VALID,0.882813,
2011-10-16, 04:17:04,VALID,915.638,VALID,0,VALID,96.3295,VALID,0,VALID,19.3323,VALID,139,VALID,0.68125,
2011-10-16, 04:18:04,VALID,915.654,VALID,0,VALID,96.3981,VALID,0,VALID,19.3713,VALID,139,VALID,0.658203,
2011-10-16, 04:19:04,VALID,915.636,VALID,0,VALID,96.4133,VALID,0,VALID,19.3308,VALID,139,VALID,0.760156,
2011-10-16, 04:20:04,VALID,915.68,VALID,0,VALID,96.4438,VALID,0,VALID,19.3518,VALID,139,VALID,0.912109,
2011-10-16, 04:21:04,VALID,915.673,VALID,0,VALID,96.6573,VALID,0,VALID,19.4298,VALID,139,VALID,1.31914,
2011-10-16, 04:22:04,VALID,915.646,VALID,0,VALID,96.6802,VALID,0,VALID,19.4478,VALID,139,VALID,1.05234,
2011-10-16, 04:23:04,VALID,915.657,VALID,0,VALID,96.825,VALID,0,VALID,19.5663,VALID,139,VALID,1.23516,
2011-10-16, 04:24:04,VALID,915.663,VALID,0,VALID,96.7945,VALID,0,VALID,19.6248,VALID,139,VALID,0.774609,
2011-10-16, 04:25:04,VALID,915.654,VALID,0,VALID,96.5506,VALID,0,VALID,19.6443,VALID,108,VALID,0.957812,
2011-10-16, 04:26:04,VALID,915.676,VALID,0,VALID,96.3752,VALID,0,VALID,19.6068,VALID,108,VALID,1.23633,
2011-10-16, 04:27:04,VALID,915.671,VALID,0,VALID,96.4743,VALID,0,VALID,19.6638,VALID,108,VALID,0.758984,
2011-10-16, 04:28:04,VALID,915.652,VALID,0,VALID,96.3981,VALID,0,VALID,19.6833,VALID,108,VALID,0.485938,
2011-10-16, 04:29:04,VALID,915.627,VALID,0,VALID,96.36,VALID,0,VALID,19.7223,VALID,108,VALID,1.03164,
2011-10-16, 04:30:04,VALID,915.612,VALID,0,VALID,96.2228,VALID,0,VALID,19.7808,VALID,108,VALID,0.679688,
2011-10-16, 04:31:04,VALID,915.618,VALID,0,VALID,96.1313,VALID,0,VALID,19.7808,VALID,108,VALID,0.583984,
2011-10-16, 04:32:04,VALID,915.58,VALID,0,VALID,96.0322,VALID,0,VALID,19.7808,VALID,108,VALID,0.969141,
2011-10-16, 04:33:04,VALID,915.603,VALID,0,VALID,95.9712,VALID,0,VALID,19.8198,VALID,132,VALID,0.544922,
2011-10-16, 04:34:04,VALID,915.593,VALID,0,VALID,95.8568,VALID,0,VALID,19.8588,VALID,132,VALID,0.429297,
2011-10-16, 04:35:04,VALID,915.594,VALID,0,VALID,95.7501,VALID,0,VALID,19.8783,VALID,132,VALID,0.405469,
2011-10-16, 04:36:04,VALID,915.628,VALID,0,VALID,95.6434,VALID,0,VALID,19.8783,VALID,132,VALID,0,
2011-10-16, 04:37:04,VALID,915.634,VALID,0,VALID,95.4452,VALID,0,VALID,19.8588,VALID,132,VALID,0.354688,
2011-10-16, 04:38:04,VALID,915.634,VALID,0,VALID,95.3537,VALID,0,VALID,19.8783,VALID,132,VALID,0.404687,
2011-10-16, 04:39:04,VALID,915.631,VALID,0,VALID,95.2927,VALID,0.107441,VALID,19.8783,VALID,132,VALID,0.567578,
2011-10-16, 04:40:04,VALID,915.599,VALID,0,VALID,95.2775,VALID,0,VALID,19.8978,VALID,132,VALID,0.429297,
2011-10-16, 04:41:04,VALID,915.645,VALID,0,VALID,95.2622,VALID,0,VALID,19.9173,VALID,132,VALID,0.33125,
2011-10-16, 04:42:04,VALID,915.657,VALID,0,VALID,95.1402,VALID,0,VALID,19.8963,VALID,132,VALID,0.237109,
2011-10-16, 04:43:04,VALID,915.65,VALID,0,VALID,95.0564,VALID,0,VALID,19.8768,VALID,132,VALID,0.424219,
2011-10-16, 04:44:04,VALID,915.678,VALID,0,VALID,95.0106,VALID,0,VALID,19.8783,VALID,132,VALID,0.491797,
2011-10-16, 04:45:04,VALID,915.654,VALID,0,VALID,95.1479,VALID,0,VALID,19.8783,VALID,132,VALID,0.592578,
2011-10-16, 04:46:04,VALID,915.659,VALID,0,VALID,95.1936,VALID,0,VALID,19.9173,VALID,132,VALID,0.485156,
2011-10-16, 04:47:04,VALID,915.664,VALID,0,VALID,95.0945,VALID,0,VALID,19.9368,VALID,132,VALID,0.573047,
2011-10-16, 04:48:04,VALID,915.644,VALID,0,VALID,94.9039,VALID,0,VALID,19.8768,VALID,132,VALID,0.6,
2011-10-16, 04:49:04,VALID,915.648,VALID,0,VALID,94.9649,VALID,0,VALID,19.8573,VALID,132,VALID,0.954687,
2011-10-16, 04:50:04,VALID,915.654,VALID,0,VALID,95.0259,VALID,0,VALID,19.8798,VALID,132,VALID,0.681641,
2011-10-16, 04:51:04,VALID,915.645,VALID,0,VALID,94.9954,VALID,0,VALID,19.8798,VALID,112,VALID,0.873047,
2011-10-16, 04:52:04,VALID,915.656,VALID,0,VALID,95.0335,VALID,0,VALID,19.8798,VALID,112,VALID,0.929297,
2011-10-16, 04:53:04,VALID,915.699,VALID,0,VALID,95.0488,VALID,0,VALID,19.8393,VALID,112,VALID,0.882813,
2011-10-16, 04:54:04,VALID,915.704,VALID,0,VALID,95.0945,VALID,0,VALID,19.8408,VALID,112,VALID,0.914063,
2011-10-16, 04:55:04,VALID,915.723,VALID,0,VALID,95.0945,VALID,0,VALID,19.8198,VALID,111,VALID,1.31016,
2011-10-16, 04:56:04,VALID,915.715,VALID,0,VALID,95.1174,VALID,0,VALID,19.8213,VALID,111,VALID,0.830078,
2011-10-16, 04:57:04,VALID,915.738,VALID,0,VALID,95.1174,VALID,0,VALID,19.7808,VALID,63,VALID,1.48672,
2011-10-16, 04:58:04,VALID,915.72,VALID,0,VALID,95.2012,VALID,0,VALID,19.8408,VALID,63,VALID,1.12344,
2011-10-16, 04:59:04,VALID,915.695,VALID,0,VALID,95.2317,VALID,0,VALID,19.8198,VALID,64,VALID,1.13281,
2011-10-16, 05:00:04,VALID,915.688,VALID,0,VALID,95.2012,VALID,0,VALID,19.8003,VALID,64,VALID,1.12656,
2011-10-16, 05:01:04,VALID,915.718,VALID,0,VALID,95.2393,VALID,0,VALID,19.8408,VALID,64,VALID,1.3457,
2011-10-16, 05:02:04,VALID,915.733,VALID,0,VALID,95.2622,VALID,0,VALID,19.8603,VALID,64,VALID,1.42188,
2011-10-16, 05:03:04,VALID,915.726,VALID,0,VALID,95.3156,VALID,0,VALID,19.8408,VALID,64,VALID,1.19414,
2011-10-16, 05:04:04,VALID,915.722,VALID,0,VALID,95.3461,VALID,0,VALID,19.8408,VALID,80,VALID,0.952344,
2011-10-16, 05:05:04,VALID,915.746,VALID,0,VALID,95.4223,VALID,0.107441,VALID,19.8573,VALID,101,VALID,0.770703,
2011-10-16, 05:06:04,VALID,915.734,VALID,0,VALID,95.4375,VALID,0,VALID,19.9368,VALID,116,VALID,1.40352,